Torna al catalogo

COSMOS 2499 DEB

AttivoPO
NORAD 49938·DEBRIS·🇷🇺 Russia

Lanciato May 23, 2014 da Plesetsk Cosmodrome

Loading…

Prossimi Passaggi (prossime 24 ore)

TLE

AggiornatoSource: Space-Track

Epoca: Sep 12, 2026, 02:11 UTC

1 49938U 14028V   26255.09119009  .00002690  00000-0  65651-2 0  9999
2 49938  82.5630 175.5933 0306622   5.2572 355.1640 13.05493588230546

Traccia COSMOS 2499 DEB in tempo reale con AllMySat

Download on the App Store